Location: Morisset
(33.1080°S, 151.4871°E)
Time: 08:11:06
(UTC+00:00)

USA 215 - Pass Details

Date: 29 October 2020
Orbit: 1102 x 1106 km, 123.0° (Epoch: 23 November)

Event Time Altitude Azimuth Distance (km) Brightness Sun altitude
Rises 15:39:31 0° 142° (SE) 3,951 7.2 -34.9°
Reaches altitude 10° 15:42:03 10° 145° (SE) 2,988 6.3 -34.5°
Enters shadow 15:48:06 58° 206° (SSW) 1,282 3.6 -33.8°
